Location: Cossonay
(46.5833°N, 6.4167°E)
Time: 22:22:05
(UTC+00:00)

CBERS-1 - Pass Details

Date: 09 October 2020
Orbit: 770 x 777 km, 98.6° (Epoch: 22 October)

Event Time Altitude Azimuth Distance (km) Brightness Sun altitude
Rises 03:53:57 0° 357° (N) 3,261 7.4 -19.6°
Reaches altitude 10° 03:57:49 10° 327° (NNW) 2,330 6.3 -19.0°
Enters shadow 03:58:31 11° 320° (NW) 2,249 6.1 -18.9°
